Tracking 30703 objects as of 14-Jun-2025
HD Live streaming from Space Station
objects crossing your sky now

COSMOS 1275 DEB

Track COSMOS 1275 DEB now!
10-day predictions


NORAD ID: 13473
Int'l Code: 1981-053FV
Perigee: 789.6 km
Apogee: 853.5 km
Inclination: 82.8 °
Period: 101.2 minutes
Semi major axis: 7192 km
RCS: 0.033 m2 (small)
Launch date: June 4, 1981
Source: Commonwealth of Independent States (former USSR) (CIS)
Launch site: PLESETSK MISSILE AND SPACE COMPLEX (PKMTR)

Note: This is SATELLITE DEBRIS
Your satellite tracking list
Your tracking list is empty




NASA's NSSDC Master Catalog

Two Line Element Set (TLE):
1 13473U 81053FV  25164.74639536  .00004639  00000-0  20230-2 0  9997
2 13473  82.8328 274.3904 0044482  78.6384  73.3815 14.23241243195725
Source of the keplerian elements: AFSPC